Preview of NWS' New Version of Forecast
This preview is not operational and should not be used for support decisions.
Latest weather observations around

Windsor Locks, Bradley International Airport (KBDL)

Using English Units (Switch to International System of Units)
Date/ Time (EDT) Wind (mph) Vis. (mi) Weather Sky Cond. Temp (°F) Rel. Humidity Wind Chill (°F) Heat Index (°F) Pressure Precip. (in)
Air Dwpt 6 hour Altimeter (inHg) Sea level (inHg) 1 hr 3 hr 6 hr
Max Min
Apr 19 22:51 NW 13 10 Cloudy FEW050 OVC080 38 27     64% 30   29.9 29.9      
Apr 19 20:51 WNW 10 10 Cloudy FEW040 BKN060 OVC075 39 27     62% 32   29.87 29.87      
Apr 19 19:51 WNW 13 10 Cloudy OVC085 41 28     60% 34   29.82 29.83     0
Apr 19 18:51 NW 16 10 Mostly Cloudy FEW065 BKN090 BKN140 42 28     57% 34   29.79 29.79      
Apr 19 17:51 NW 15 10 Mostly Cloudy SCT035 BKN050 BKN120 44 32     62% 37   29.77 29.77      
Apr 19 16:51 WNW 15 10 Mostly Cloudy FEW028 SCT035 BKN070 44 35     70% 37   29.74 29.74 0 0  
Apr 19 15:51 NW 10 10 Light Rain SCT030 OVC040 43 35     73% 37   29.74 29.74 0    
Apr 19 13:51 Calm 10 Cloudy SCT019 BKN030 OVC060 41 35     79%     29.7 29.71     0
Apr 19 13:20 Calm 10 Cloudy FEW015 BKN030 OVC060 42 36     79%     29.69        
Apr 19 13:08 NW 3 10 Cloudy FEW015 BKN028 OVC050 41 35     79% 39   29.69        
Apr 19 12:51 N 3 10 Cloudy FEW015 SCT025 OVC055 41 35     79% 39   29.69 29.69      
Apr 19 12:21 Calm 10 Cloudy SCT012 OVC055 40 36     86%     29.7        
Apr 19 11:51 3 10 Cloudy BKN010 OVC055 40 36     86% 38   29.7 29.71      
Apr 19 11:45 6 10 Cloudy BKN010 OVC055 39 36     87% 35   29.68        
Apr 19 11:15 3 10 Cloudy BKN007 OVC049 39 36     89% 37   29.7        
Apr 19 10:51 Calm 10 Cloudy FEW005 OVC050 37 35     92%     29.7 29.7   0  
Apr 19 09:51 NNE 3 10 Cloudy FEW004 FEW024 OVC034 36 35     96% 33   29.72 29.73 0    
Apr 19 09:42 N 3 10 Light Rain FEW004 SCT022 OVC034 36 35     96% 33   29.73   0    
Apr 19 09:11 NNW 7 10 Light Rain and FEW005 BKN019 OVC037 35 34     96% 29   29.73   0    
Apr 19 08:51 NNE 8 9 Light Rain and FEW006 OVC037 35 34     96% 29   29.7 29.71 0    
Apr 19 08:13 N 5 7 Light Rain and FEW008 FEW019 OVC033 35 34     96% 31   29.74   0    
Apr 19 07:51 N 3 8 Light Rain FEW019 OVC038 36 34     92% 33   29.73 29.73 0   0
Apr 19 07:46 ENE 3 8 Light Rain SCT019 OVC036 36 34     93% 33   29.73   0    
Apr 19 07:07 Calm 6 Light and Rain and Fog/Mist BKN048 OVC070 36 35     96%     29.74   0    
Apr 19 06:51 NNW 3 7 Light Rain OVC070 36 34     92% 33   29.73 29.72 0    
Apr 19 06:26 NNE 5 6 Light Rain BKN044 OVC070 37 32     82% 33   29.72   0    
Apr 19 06:15 NNW 6 4 Light Rain and and Fog/Mist BKN031 OVC070 36 32     85% 31   29.73   0    
Apr 19 06:06 NNW 7 3 Light Rain and OVC018 38 32     79% 33   29.74   0    
Apr 19 05:56 N 7 9 Light Rain OVC029 39 32     76% 34   29.75   0    
Apr 19 05:51 W 3 10 Light Rain OVC031 39 32     76% 37   29.75 29.75 0    
Apr 19 04:51 NNW 5 10 Cloudy OVC070 38 32     79% 34   29.72 29.72      
Apr 19 03:51 Calm 10 Mostly Cloudy BKN075 BKN140 38 31     76%     29.71 29.71      
Apr 19 02:51 Calm 10 Mostly Cloudy BKN080 BKN140 38 32     79%     29.74 29.74      
Apr 19 01:51 Calm 10 Mostly Cloudy FEW070 BKN090 BKN130 38 31     76%     29.75 29.75      
Apr 19 00:51 NNW 3 10 Mostly Clear FEW055 FEW070 34 29     82% 31   29.78 29.78      
Apr 18 23:51 Calm 10 Mostly Clear FEW045 39 28     64%     29.76 29.76      
Apr 18 22:51 WNW 3 10 Mostly Clear FEW046 41 28     60% 39   29.77 29.78      
Apr 18 21:51 NW 5 10 Mostly Cloudy BKN049 43 29     57% 40   29.78 29.78      
Apr 18 20:51 NW 8 10 Cloudy OVC050 45 29     53% 41   29.78 29.78      
Apr 18 19:51 NW 9 10 Cloudy OVC050 47 29     49% 43   29.76 29.76      
Apr 18 18:51 W 13 10 Cloudy OVC050 48 29     47% 43   29.75 29.75      
Apr 18 17:51 WNW 13 10 Mostly Cloudy BKN050 49 29     46% 44   29.74 29.74      
Apr 18 16:51 W 11 10 Mostly Cloudy BKN050 50 29     44% 46   29.73 29.73      
Apr 18 15:51 NW 13 10 Mostly Cloudy BKN047 49 28     44% 44   29.72 29.72      
Apr 18 14:51 W 13 10 Mostly Cloudy BKN050 BKN250 50 29     44% 45   29.72 29.72      
Apr 18 13:51 WNW 16 10 Mostly Cloudy BKN046 BKN055 50 29     44% 44   29.72 29.72      
Apr 18 12:51   10 Mostly Cloudy BKN043 BKN050 49 30     48%     29.73 29.72      
Apr 18 11:51 WNW 13 10 Mostly Cloudy BKN039 45 29     53% 39   29.73 29.72      
Apr 18 10:51   10 Mostly Cloudy BKN035 43 28     55%     29.72 29.72      
Apr 18 09:51 SW 7 10 Mostly Cloudy BKN032 39 27     62% 34   29.72 29.72      
Apr 18 08:51 SW 10 10 Mostly Cloudy BKN033 37 25     61% 30   29.72 29.72      
Apr 18 07:51 SSW 9 10 Mostly Cloudy BKN035 36 24     62% 29   29.71 29.71      
Apr 18 06:51 SSW 8 10 Mostly Cloudy BKN040 35 23     61% 29   29.7 29.7      
Apr 18 05:51 WSW 7 10 Mostly Cloudy BKN042 34 23     64% 28   29.68 29.69      
Apr 18 04:51 W 9 10 Mostly Cloudy BKN045 33 24     69% 25   29.69 29.7      
Apr 18 03:51 WNW 13 10 Mostly Cloudy FEW038 BKN050 34 24     67% 25   29.68 29.68      
Apr 18 02:51 WSW 7 10 Mostly Cloudy FEW038 BKN050 34 30     85% 28   29.67 29.68      
Apr 18 01:51 WSW 6 10 Mostly Cloudy BKN048 33 29     85% 28   29.67 29.67     0
Apr 18 00:51 WSW 6 10 Partly Cloudy FEW035 SCT065 34 31     88% 29   29.67 29.67      
Apr 17 23:51 W 6 10 Mostly Cloudy FEW032 SCT046 BKN065 36 33     89% 31   29.67 29.67 0    
Apr 17 23:26 W 8 10 Cloudy SCT026 BKN032 OVC043 36 33     89% 30   29.66   0    
Apr 17 22:51 W 10 10 Light Rain BKN026 OVC038 37 34     89% 30   29.66 29.66 0 0  
Apr 17 22:48 W 9 10 Light Rain BKN028 OVC038 37 34     87% 31   29.66   0    
Apr 17 21:51 W 7 10 Cloudy FEW021 BKN050 OVC065 38 31     76% 33   29.65 29.65      
Apr 17 20:51 W 10 10 Cloudy OVC095 39 30     70% 32   29.64 29.64      
Apr 17 19:51 W 15 10 Cloudy FEW047 BKN080 OVC090 42 25     50% 35   29.61 29.61     0
Apr 17 18:51 W 11 10 Mostly Cloudy FEW055 BKN070 BKN080 43 24     47% 37   29.59 29.59      
Apr 17 17:51 NW 14 10 Mostly Cloudy BKN055 BKN080 43 25     49% 36   29.57 29.57      
Apr 17 16:51 WNW 7 10 Mostly Cloudy FEW025 BKN043 BKN065 42 33     70% 38   29.57 29.57 0 0  
Apr 17 15:51   10 Mostly Cloudy BKN049 BKN060 47 29     49%     29.54 29.54      
Apr 17 14:51 W 9 10 Mostly Cloudy SCT039 BKN055 BKN070 45 35     68% 40   29.54 29.54 0    
Apr 17 13:51   10 Mostly Cloudy FEW035 SCT050 BKN060 47 32     56%     29.55 29.55     0
Apr 17 12:51 W 13 10 Mostly Cloudy FEW036 BKN045 BKN050 BKN200 46 30     53% 40   29.56 29.56      
Apr 17 11:51 WNW 11 10 Cloudy BKN040 BKN060 OVC200 47 30     52% 42   29.58 29.57 0    
Apr 17 10:51 W 11 10 Light Rain SCT035 BKN043 OVC055 44 32     62% 38   29.59 29.59 0 0  
Apr 17 09:51 W 11 10 Cloudy FEW027 BKN039 OVC050 42 35     76% 36   29.59 29.59 0    
Apr 17 08:51 W 11 10 Mostly Cloudy SCT027 BKN032 BKN065 43 33     68% 37   29.58 29.58      
Apr 17 07:51 WSW 9 10 Mostly Cloudy FEW030 BKN065 BKN095 41 34     76% 35   29.57 29.57      
Apr 17 06:51 W 5 10 Mostly Cloudy SCT031 BKN065 BKN090 40 32     73% 37   29.56 29.56      
Apr 17 05:51 W 6 10 Mostly Cloudy FEW030 BKN055 BKN070 40 32     73% 36   29.55 29.55      
Apr 17 04:51 3 10 Cloudy FEW031 OVC050 40 33     76% 38   29.55 29.55      
Apr 17 03:51 WNW 6 10 Mostly Cloudy SCT029 BKN050 40 33     76% 36   29.55 29.55      
Apr 17 02:51 WNW 7 10 Cloudy FEW025 OVC048 41 35     79% 36   29.55 29.54      
Apr 17 01:51 WNW 14 10 Cloudy FEW019 OVC036 42 37     82% 35   29.52 29.52     0
Apr 17 01:05 WNW 10 10 Cloudy FEW013 SCT020 OVC031 43 41     93% 37   29.52        
Apr 17 00:51   10 Cloudy SCT013 BKN020 OVC029 43 41     93%     29.51 29.51 0    
Apr 17 00:41   4 Light Rain and Fog/Mist FEW003 BKN010 OVC016 43 42     97%     29.5   0    
Jun 10 10:51 SSW 9 10 Mostly Cloudy FEW070 SCT095 BKN250 80 53     39%   80 29.97 29.97      
Jun 07 15:51 6 10 Mostly Clear FEW060 FEW080 74 45     36%   73 29.95 29.94      
Jun 07 09:51 N 10 10 Mostly Cloudy FEW020 BKN055 58 49     72%     29.99 29.99